BEIDOU 8

Last updated on June 27, 2019, 3:44 a.m. UTC

1 37384U 11013A   19177.21537993 -.00000212  00000-0  10000-3 0  9995
2 37384  58.7845  65.2579 0039176 207.0160 196.1320  1.00253175 30133
UTC
Height (km)
Latitude
Longitude
Inclination
Orbital Period
UTC large
Height (km)
Speed (km/s)
/
Latitude / Longitude
Inclination (degrees)
Orbital Period (minutes)
Azimuth
Elevation
Range (km)
Doppler Factor
iOS Compass Heading
iOS Angle

Next 30 passes for location: Hong Kong

Rise time Rise Azimuth (degrees) Set time Set Azimuth (degrees) Duration Max altitude (degrees)

No matching passes for this satellites